Simultaneous Nadir Overpasses (SNOs) Predictions

Prediction of SNOs between NOAA-20 and AQUA Satellite Orbit:

Table of predicted SNOs for the next 14.0 days since TLE Epoch: 3/30/2024
Index Date (NOAA-20) Time (NOAA-20) Lat,Lon (NOAA-20) SZA (NOAA-20 ) Date (AQUA) Time (AQUA) Lat,Lon (AQUA) SZA (AQUA ) Distance(km) Time Diff (sec)
1 03/31/2024 14:53:09 81.21,-122.02 83.98 03/31/2024 14:53:51 81.21,-122.04 83.96 0.31 42
2 03/31/2024 15:43:51 -81.23, 46.06 96.15 03/31/2024 15:43:13 -81.23, 46.09 96.13 0.72 38
3 04/03/2024 06:14:48 -81.21,-172.42 97.06 04/03/2024 06:15:51 -81.20,-172.61 97.07 3.27 63
4 04/03/2024 07:05:26 81.22, -4.76 82.89 04/03/2024 07:05:12 81.22, -4.62 82.87 2.45 14
5 04/05/2024 22:27:04 -81.22, -54.98 98.17 04/05/2024 22:27:10 -81.21, -55.15 98.15 3.00 6
6 04/05/2024 23:17:41 81.23, 112.79 81.76 04/05/2024 23:16:30 81.23, 112.82 81.80 0.57 71
7 04/08/2024 13:48:37 81.22,-105.41 80.84 04/08/2024 13:49:03 81.22,-105.45 80.83 0.66 26
8 04/08/2024 14:39:19 -81.23, 62.36 99.25 04/08/2024 14:38:26 -81.23, 62.33 99.21 0.73 53
9 04/11/2024 05:10:15 -81.21,-156.05 100.12 04/11/2024 05:10:57 -81.22,-155.88 100.18 3.02 42



Historial Predications of SNOs between NOAA-20 and AQUA
